Temp_Advection
nan nan nan nan nan nan nan nan nan nan nan nan nan nan nan nan nan nan nan nan nan nan nan nan nan nan nan nan nan nan nan nan nan nan nan nan nan nan nan nan nan nan nan
nan -0 -0 -0 -0 -0 -0 -0 0 -0 -0 -1 -1 -0 -0 -0 -0 -0 -0 0 -0 -1 -1 -0 -0 -0 -0 -0 -0 -0 -0 -0 0 0 -0 -0 0 0 0 0 0 0 nan
nan -0 -0 -0 -0 -0 -0 -0 -0 -0 0 -0 -0 -0 -1 -0 -0 -0 -0 -0 -0 0 -0 -1 -0 -0 -0 -0 -0 -0 -0 -0 -0 0 0 -0 -0 0 0 0 0 0 nan
nan -0 -0 -0 -0 -0 -0 -0 -0 -0 -0 -0 -0 0 -0 -1 -1 -1 -1 -1 -0 -0 0 -0 -1 -0 -0 -1 -0 -0 0 -0 -0 -0 0 0 0 -0 0 0 0 0 nan
nan -0 -0 -0 -0 -0 -0 -0 -0 -0 -0 -0 -0 -0 0 0 0 -0 -1 -1 -1 -1 -1 -1 -1 -1 -0 -0 -1 -0 -0 -0 -0 -0 0 0 0 0 0 0 0 0 nan
nan -0 -0 -0 -0 -0 -0 -0 -0 -0 -0 -1 -1 -0 -0 -0 -0 0 -0 -0 -0 -0 -0 -0 0 -0 -1 -1 -0 -1 -1 0 -0 -0 0 0 0 0 0 0 0 0 nan
nan -0 -0 -0 0 -0 -0 -0 -0 -0 0 -1 -2 -2 -1 -0 0 -0 -0 -0 -1 -0 -1 -1 -0 0 0 -0 -1 -1 -1 -1 0 0 -0 1 -0 0 0 0 0 0 nan
nan -0 -0 -0 -0 -0 0 -0 -0 -1 -0 0 -1 -2 -1 -1 -0 -0 -1 -0 -1 -1 -1 -1 -1 -0 0 0 -0 -1 -1 -1 -1 -0 0 -1 -0 1 0 0 0 0 nan
nan -0 -0 -0 -0 -0 -0 -0 -0 -1 -1 0 0 0 -0 -0 -2 -1 -0 -0 -1 -1 -1 -1 -1 -1 -0 -1 -0 -1 -1 -1 -1 -0 -1 -0 1 1 0 0 0 -0 nan
nan -0 -0 -0 -0 0 -0 0 0 -0 -0 -1 0 1 0 -0 -0 -1 -1 -0 -0 -0 -1 -0 -0 -1 -0 -0 -0 -0 -0 -0 -0 -1 -0 -0 0 1 1 1 -0 0 nan
nan -0 -0 -0 -0 -0 -0 -0 -0 0 -0 -0 -1 -0 0 0 0 -1 -1 -2 -1 -0 -0 -1 -1 -1 -0 -0 -0 -1 -0 -0 -0 -1 -1 0 1 0 -0 -0 -0 -0 nan
nan -0 -0 -0 -0 -0 -0 0 -0 0 0 0 -0 -0 -0 -0 -0 0 -1 -1 -2 -1 -0 -0 -0 -0 -0 -0 -0 -0 -0 -0 -0 -0 -0 -2 -0 -0 -0 -0 0 0 nan
nan 0 0 -0 -0 -0 0 0 0 0 0 0 0 0 0 0 -0 0 -0 -1 -1 -1 -0 -1 -1 -1 -0 -0 -0 -0 -0 -0 -0 -0 -0 -0 -0 -1 -1 -0 0 1 nan
nan 0 0 -0 -0 -0 -0 -0 -0 0 0 0 0 -0 0 0 0 0 0 -0 -1 -1 -0 -1 -1 -1 -1 -1 -0 -0 -0 -0 -0 -0 -0 -1 -1 -0 -0 1 -0 -1 nan
nan 0 0 0 0 -0 -0 0 -0 0 0 0 0 0 -0 0 0 0 0 0 0 -0 -1 -0 -1 -1 -2 -1 -1 -1 -1 -0 -0 -0 -0 -0 -1 -0 -0 -0 0 -0 nan
nan 0 0 0 0 0 0 0 0 0 0 0 0 0 -0 -0 0 0 0 0 0 0 -0 0 -0 -1 -1 -1 -1 -1 -1 -1 -1 -1 -1 -1 -1 -1 -1 -0 -0 0 nan
nan 0 0 0 0 0 0 0 0 0 0 0 0 0 -0 -0 -0 -0 0 0 0 -0 -0 -0 0 -1 -1 -1 -1 -1 -1 -1 -1 -1 -1 -1 -1 -1 -1 -1 -1 -1 nan
nan 0 0 0 0 0 0 0 0 0 0 0 0 -0 0 0 0 0 -0 0 0 -0 -0 -1 -0 -0 -1 -1 -1 -1 -1 -1 -1 -1 -1 -1 -0 -1 -1 -1 -1 -2 nan
nan -0 0 0 0 0 0 0 0 0 0 0 0 0 -0 -0 0 0 0 0 0 0 -0 -0 -0 -0 0 -0 -1 -1 -1 -1 -1 -1 -1 -1 -0 -0 -0 -0 -1 -1 nan
nan -0 -0 0 0 0 0 0 0 0 0 0 0 0 0 -0 -0 0 -0 0 0 0 0 -0 -0 -0 -0 -0 -0 -0 -1 -1 -1 -1 -1 -1 -1 -1 -1 -1 -1 -1 nan
nan 0 -0 -0 0 0 0 0 1 1 1 0 0 0 0 -0 -0 0 0 -0 0 0 0 -0 -0 -0 -1 -1 -0 -0 -1 -1 -1 -0 -1 -1 -1 -0 -0 -0 -1 -1 nan
nan -0 -0 -0 -0 0 0 0 0 1 1 0 0 0 0 0 -0 0 0 -0 0 -0 0 0 -0 -0 -0 -0 -0 -0 -0 -1 -1 -0 -1 -1 -1 -1 -0 -0 0 -0 nan
nan 0 0 -0 0 0 0 0 0 1 1 0 0 0 0 0 1 -0 -0 0 0 0 0 0 0 -0 -0 -0 -0 -0 -0 0 -1 -1 -1 -1 -0 -1 -1 -1 -0 -0 nan
nan 1 1 0 0 1 1 -0 0 0 0 0 0 0 0 0 1 1 0 -0 0 0 0 0 0 0 0 -0 -0 0 -0 -0 -0 -0 0 -2 -1 -1 -0 -0 -0 -0 nan
nan 1 1 0 -0 1 1 0 -0 0 -0 0 0 0 0 0 1 1 0 -0 0 0 0 0 -0 0 0 0 -0 0 0 -0 -1 -1 -0 -0 -1 -1 -2 -1 -0 -0 nan
nan nan nan nan nan nan nan nan nan nan nan nan nan nan nan nan nan nan nan nan nan nan nan nan nan nan nan nan nan nan nan nan nan nan nan nan nan nan nan nan nan nan nan
Wind_Speed
12 12 11 11 11 13 14 15 15 16 18 19 21 22 23 24 26 25 24 30 30 32 34 35 34 33 33 34 34 34 33 31 30 27 26 26 25 24 24 25 26 26 23
12 12 12 11 11 13 14 14 13 14 16 17 18 18 20 22 24 26 28 28 27 30 33 33 36 38 36 36 36 36 37 36 34 32 29 28 28 27 27 26 26 26 25
13 13 12 13 16 16 15 14 14 15 15 16 17 18 20 21 21 24 27 28 28 27 28 32 37 39 39 39 37 38 38 38 38 36 34 31 31 30 29 29 28 27 27
13 12 12 13 16 16 14 13 13 13 15 17 18 18 19 22 22 23 24 24 28 32 33 32 40 41 36 40 41 40 40 40 40 39 38 36 33 33 32 31 30 29 29
12 12 12 12 13 13 14 14 13 16 18 19 20 20 20 21 19 19 22 24 26 28 28 29 34 39 38 42 40 39 41 43 43 43 42 40 38 35 34 33 33 31 31
12 12 11 11 12 14 14 15 16 15 17 18 20 19 18 14 11 14 17 18 16 19 22 26 28 32 34 36 41 43 41 42 46 46 45 44 42 40 38 36 35 33 33
12 11 11 11 11 12 14 16 18 19 17 21 22 23 13 11 9 12 16 17 20 26 28 32 32 35 36 33 33 39 42 45 46 49 48 46 45 45 43 40 37 36 35
11 12 12 13 13 13 13 15 17 19 18 19 20 17 14 16 5 7 20 14 16 21 21 21 24 27 28 28 30 34 36 40 42 46 49 50 46 50 47 45 43 40 38
12 12 13 13 13 14 14 15 16 17 19 16 13 8 7 6 23 11 13 15 21 19 24 20 21 21 9 18 23 22 24 25 41 40 43 49 46 50 47 50 49 46 44
13 13 14 15 15 15 15 15 15 15 16 18 17 12 8 10 7 11 22 15 15 19 22 19 18 17 9 7 4 10 14 13 22 8 24 39 40 43 45 49 50 52 50
14 14 15 15 16 16 16 15 15 14 14 14 15 17 15 13 5 12 14 25 18 13 19 18 20 18 17 15 13 9 13 14 18 10 16 17 18 37 22 17 46 43 46
15 15 14 16 17 17 16 14 14 13 12 13 13 13 13 14 17 15 15 23 17 11 13 16 14 15 17 18 17 13 12 6 10 17 20 21 14 15 25 20 20 26 24
16 16 16 16 17 17 17 16 15 13 12 12 13 12 11 11 12 13 14 19 18 12 10 12 17 17 18 17 15 15 14 13 12 10 8 14 8 16 15 13 13 26 23
17 16 16 16 17 17 17 16 15 14 12 12 11 11 12 11 11 11 12 14 19 11 9 13 21 18 18 18 18 14 13 12 13 15 17 17 15 17 18 22 14 14 26
18 18 17 17 17 17 17 16 15 14 12 12 11 11 11 10 9 10 10 8 8 8 16 11 18 23 23 18 16 17 15 13 13 15 15 16 15 13 16 16 17 13 14
21 20 18 18 18 18 17 16 15 14 13 12 11 11 11 10 9 9 9 9 8 9 8 14 17 20 19 19 17 16 16 15 15 14 17 16 17 16 17 16 19 18 15
24 23 21 20 18 18 17 17 16 15 13 13 12 11 11 11 10 11 10 10 11 11 14 16 16 18 18 18 18 16 14 14 15 17 17 18 17 16 16 16 18 19 21
27 25 23 22 20 19 18 17 17 15 15 13 13 12 12 11 11 11 11 10 13 13 15 18 16 17 18 18 17 17 17 15 14 14 15 14 15 15 16 17 17 18 18
30 28 27 24 22 21 19 18 17 16 15 15 15 14 13 13 13 14 13 12 12 13 14 16 19 16 16 14 17 18 18 16 14 13 13 14 14 15 16 16 17 17 17
33 31 29 26 24 22 20 19 18 17 16 16 15 16 15 15 14 16 16 14 14 15 16 16 16 16 15 10 11 18 18 18 19 14 12 14 15 18 16 16 18 19 17
34 34 31 29 27 25 22 21 19 18 18 18 17 16 16 17 17 17 16 15 15 15 16 17 17 17 16 17 13 18 22 24 18 9 15 16 19 17 14 14 15 17 18
35 36 35 33 30 27 23 22 20 20 19 20 19 17 17 17 18 17 16 17 15 15 16 17 18 18 16 14 19 21 20 21 22 13 24 22 17 17 17 16 17 18 18
35 37 37 35 33 29 25 23 22 22 20 20 19 19 18 16 18 18 18 16 14 11 12 15 18 17 18 18 19 21 19 20 22 24 23 25 21 22 21 18 16 19 19
35 37 37 37 35 30 26 25 23 23 21 20 19 19 19 18 17 17 19 19 17 16 16 16 16 19 19 18 17 18 19 22 25 24 19 26 24 22 19 20 19 16 14
35 37 37 36 37 32 29 23 24 24 22 20 18 18 18 18 17 17 18 20 19 16 14 14 15 17 20 19 16 19 19 20 25 25 20 17 17 25 28 23 14 9 8
35 34 36 36 36 33 29 22 24 24 23 20 19 18 17 17 18 16 15 17 20 17 17 20 18 19 18 14 15 16 19 21 21 18 6 16 22 25 19 22 9 24 26
Wind_Direction
323 324 316 304 299 288 292 297 296 290 287 284 277 272 267 261 259 265 283 283 273 267 270 269 272 269 267 260 255 252 252 251 252 252 251 248 242 237 234 232 233 240 243
329 328 326 322 306 300 302 304 310 309 303 299 293 285 277 272 270 265 265 274 283 284 274 273 269 267 268 266 259 254 250 250 249 248 249 247 245 241 238 236 236 237 238
333 333 326 317 310 311 310 305 303 302 303 303 304 303 297 287 280 275 270 268 269 272 278 274 268 269 265 265 263 258 254 250 249 248 246 246 246 243 240 238 237 237 237
335 333 327 320 320 324 321 316 316 316 314 316 312 314 316 310 305 300 294 291 279 274 273 275 274 274 271 264 263 260 256 254 250 248 247 245 245 245 242 240 238 237 237
339 341 339 338 342 347 346 341 340 334 330 324 319 315 308 304 310 320 320 318 321 316 310 292 282 280 274 266 263 261 258 255 252 248 246 246 244 245 244 241 240 238 238
344 344 343 339 341 339 341 339 343 342 341 336 331 328 334 344 359 336 319 322 317 303 303 301 298 289 288 275 268 261 261 259 254 251 248 244 243 242 243 241 240 240 239
338 339 340 338 338 340 340 340 338 338 344 343 338 333 348 344 294 324 320 337 322 314 313 294 294 287 283 286 276 269 262 258 255 253 249 245 242 241 239 241 240 239 239
335 337 336 333 333 335 332 331 331 334 338 352 354 357 342 14 340 18 359 345 338 338 334 341 323 299 278 274 272 271 267 260 258 254 251 246 246 242 239 239 239 236 236
329 330 330 330 331 330 329 330 328 334 334 344 2 348 344 324 333 316 7 335 339 346 351 341 348 339 348 279 277 288 280 278 258 254 250 251 245 244 240 239 238 236 237
322 327 329 331 332 329 328 330 329 329 328 333 336 333 335 318 319 313 327 325 356 337 354 7 7 6 359 25 343 326 283 310 262 315 246 252 254 244 239 243 237 241 242
317 325 328 328 328 330 330 329 326 322 322 322 325 327 330 339 266 325 314 332 357 333 339 352 1 360 5 12 4 330 259 299 311 331 273 258 247 265 298 265 241 247 239
314 317 322 327 331 331 329 326 324 323 321 320 321 320 322 327 326 335 318 325 328 337 327 342 353 356 354 354 359 359 352 303 254 292 281 300 259 239 259 289 244 240 282
304 312 318 321 324 325 324 323 322 321 320 317 316 318 316 313 316 317 316 318 325 333 305 319 327 338 338 343 349 341 338 331 326 315 285 273 311 315 302 301 239 250 265
296 300 307 314 318 319 319 317 315 314 314 312 312 313 315 317 319 322 321 331 335 329 308 343 331 340 343 337 337 338 329 322 315 307 305 315 306 308 299 288 318 299 256
287 292 299 306 311 314 315 313 311 308 308 308 308 307 308 310 309 315 317 313 315 319 320 354 341 331 337 342 342 336 337 332 326 312 305 303 314 305 285 294 295 316 306
283 287 293 298 303 307 309 309 307 305 305 304 300 303 303 307 306 309 314 316 308 306 295 302 324 322 331 336 344 347 344 340 334 330 331 331 324 312 301 291 294 285 286
276 280 283 288 293 298 302 304 302 299 299 298 297 300 302 304 304 307 308 311 312 309 306 314 316 323 332 337 343 348 350 349 343 341 339 340 339 333 332 324 308 299 293
272 274 276 280 286 292 298 299 296 292 292 292 293 295 297 301 300 299 305 312 311 312 312 317 327 333 339 343 348 346 349 348 348 340 339 333 336 342 338 335 329 318 313
271 270 272 276 281 286 292 294 291 289 287 289 292 294 295 297 298 299 304 300 303 305 307 306 312 317 317 335 344 338 341 342 346 342 338 331 331 333 333 328 322 326 324
269 267 268 271 275 280 285 289 288 285 281 281 284 289 294 293 298 300 300 300 295 295 300 308 313 321 327 330 327 326 326 327 330 331 340 327 334 334 325 317 316 317 316
272 270 266 266 269 273 278 283 285 282 279 279 280 282 286 291 300 299 297 301 297 298 301 301 303 305 317 328 326 314 312 315 330 334 323 320 320 323 320 317 316 310 311
274 271 266 263 265 269 273 278 282 279 274 276 279 280 284 290 292 298 298 298 299 304 306 310 311 310 311 310 304 309 321 327 333 326 322 323 327 331 325 319 314 311 310
277 275 269 263 262 264 267 271 274 275 270 271 275 279 282 285 287 291 293 293 289 277 274 286 295 303 298 300 302 305 310 309 304 317 323 318 325 321 322 318 320 319 311
280 277 273 264 261 258 262 268 271 271 270 269 274 278 282 285 285 287 290 293 289 286 283 283 287 294 296 303 303 304 303 300 300 305 315 307 321 318 320 321 320 311 309
282 278 275 266 259 255 258 259 265 266 267 269 271 274 280 283 288 284 278 287 293 296 300 292 283 278 282 294 294 297 298 302 307 313 318 302 321 317 315 320 318 309 318
284 279 273 270 262 255 254 250 262 262 263 268 271 273 278 284 285 287 290 293 294 299 298 296 297 303 300 295 292 283 289 292 299 314 314 309 303 313 321 320 307 305 308
Height
1521 1520 1519 1518 1517 1515 1514 1513 1512 1511 1509 1508 1507 1507 1506 1505 1505 1505 1504 1504 1504 1503 1502 1502 1503 1502 1502 1503 1504 1504 1505 1506 1508 1509 1509 1510 1511 1512 1514 1515 1517 1519 1520
1520 1518 1517 1516 1514 1512 1511 1509 1508 1506 1505 1504 1502 1501 1499 1499 1498 1498 1498 1498 1498 1497 1497 1495 1496 1496 1496 1496 1497 1498 1498 1499 1500 1502 1504 1504 1506 1507 1508 1510 1512 1513 1515
1518 1517 1515 1513 1511 1509 1508 1506 1505 1503 1501 1500 1498 1496 1495 1493 1492 1492 1492 1491 1490 1490 1490 1488 1489 1488 1489 1489 1490 1490 1491 1492 1494 1495 1496 1498 1499 1500 1502 1503 1505 1507 1509
1516 1514 1512 1510 1508 1507 1505 1504 1502 1500 1499 1497 1494 1492 1490 1489 1488 1488 1487 1486 1485 1484 1482 1481 1481 1481 1481 1481 1482 1483 1484 1485 1486 1488 1489 1490 1492 1493 1495 1496 1498 1500 1503
1515 1514 1511 1510 1508 1506 1504 1502 1501 1498 1496 1493 1490 1488 1486 1485 1484 1484 1483 1481 1479 1478 1476 1474 1474 1472 1472 1473 1473 1474 1475 1476 1478 1479 1480 1482 1484 1486 1487 1489 1491 1493 1496
1514 1513 1511 1509 1507 1505 1503 1501 1499 1497 1494 1490 1487 1484 1483 1482 1482 1481 1479 1478 1476 1472 1469 1467 1465 1464 1463 1464 1465 1466 1467 1469 1468 1470 1471 1473 1475 1477 1479 1481 1483 1485 1488
1514 1512 1510 1508 1506 1504 1501 1499 1497 1494 1492 1488 1484 1480 1479 1479 1478 1479 1478 1474 1472 1469 1465 1461 1459 1457 1456 1455 1456 1457 1457 1458 1459 1460 1460 1463 1465 1468 1469 1472 1474 1477 1480
1513 1511 1509 1507 1505 1503 1500 1498 1495 1493 1490 1488 1484 1482 1480 1478 1477 1475 1474 1472 1470 1466 1461 1456 1452 1448 1447 1446 1446 1446 1445 1447 1450 1451 1452 1450 1454 1457 1459 1461 1464 1467 1470
1511 1509 1507 1505 1503 1501 1499 1497 1494 1491 1487 1486 1485 1483 1481 1480 1476 1474 1473 1470 1468 1464 1460 1454 1450 1444 1441 1440 1442 1444 1441 1443 1443 1443 1442 1442 1443 1445 1447 1451 1454 1457 1460
1509 1508 1506 1504 1502 1500 1497 1495 1492 1490 1487 1485 1484 1483 1483 1482 1477 1471 1469 1468 1466 1462 1460 1456 1452 1446 1443 1436 1437 1438 1441 1436 1438 1432 1432 1437 1430 1421 1431 1439 1445 1447 1449
1507 1506 1505 1503 1500 1498 1495 1493 1490 1488 1485 1482 1481 1479 1479 1479 1478 1475 1467 1463 1462 1461 1458 1455 1451 1449 1445 1441 1438 1436 1437 1433 1435 1432 1432 1428 1422 1425 1415 1430 1436 1441 1431
1506 1504 1502 1500 1498 1496 1493 1491 1488 1486 1483 1481 1479 1478 1476 1475 1474 1472 1469 1466 1463 1460 1457 1454 1451 1448 1445 1443 1438 1437 1435 1430 1429 1430 1430 1431 1424 1418 1419 1420 1420 1416 1416
1502 1501 1500 1498 1495 1493 1490 1488 1486 1483 1481 1478 1476 1475 1474 1472 1471 1470 1467 1463 1462 1458 1456 1453 1451 1448 1444 1440 1438 1437 1435 1432 1430 1430 1426 1432 1419 1419 1420 1422 1417 1417 1416
1499 1498 1496 1495 1493 1491 1488 1486 1483 1480 1478 1476 1474 1473 1471 1470 1468 1465 1464 1461 1456 1458 1455 1452 1449 1447 1444 1440 1436 1434 1433 1430 1427 1427 1426 1421 1418 1413 1415 1421 1422 1419 1415
1495 1494 1493 1492 1490 1488 1485 1482 1480 1477 1475 1474 1472 1470 1468 1466 1465 1463 1461 1459 1456 1453 1453 1450 1446 1443 1441 1438 1434 1430 1428 1426 1424 1422 1421 1417 1413 1412 1418 1417 1417 1417 1414
1491 1490 1489 1488 1486 1484 1481 1479 1477 1475 1473 1471 1469 1467 1465 1464 1462 1459 1457 1456 1454 1452 1449 1447 1444 1440 1438 1435 1432 1429 1426 1423 1420 1418 1415 1409 1407 1406 1413 1413 1414 1414 1412
1485 1485 1484 1483 1481 1479 1477 1475 1472 1470 1469 1468 1466 1465 1463 1461 1459 1457 1454 1452 1451 1448 1445 1443 1442 1438 1436 1433 1430 1428 1425 1422 1419 1415 1412 1405 1408 1409 1410 1408 1409 1406 1408
1481 1480 1479 1478 1477 1475 1473 1471 1469 1467 1466 1464 1463 1461 1459 1458 1457 1455 1453 1449 1449 1446 1443 1439 1438 1435 1433 1431 1429 1426 1424 1421 1417 1414 1412 1411 1410 1406 1406 1405 1403 1402 1402
1474 1473 1473 1472 1471 1470 1468 1467 1465 1463 1461 1461 1460 1459 1457 1454 1453 1452 1450 1447 1445 1444 1441 1438 1435 1433 1431 1429 1427 1425 1423 1420 1418 1415 1413 1410 1409 1407 1403 1403 1403 1401 1402
1466 1466 1466 1466 1465 1465 1464 1462 1461 1459 1458 1456 1455 1455 1453 1452 1449 1449 1447 1444 1441 1440 1438 1436 1433 1431 1428 1427 1425 1423 1420 1418 1416 1414 1412 1409 1407 1404 1404 1403 1400 1397 1398
1460 1460 1460 1460 1459 1458 1457 1456 1455 1454 1453 1452 1450 1448 1447 1446 1445 1443 1443 1441 1439 1436 1435 1433 1431 1429 1426 1424 1422 1420 1418 1415 1414 1413 1411 1410 1409 1408 1405 1402 1399 1398 1396
1454 1453 1452 1452 1452 1452 1451 1450 1449 1448 1447 1446 1446 1445 1444 1443 1441 1439 1438 1436 1435 1432 1431 1430 1428 1426 1424 1422 1419 1417 1415 1412 1410 1411 1408 1406 1404 1401 1401 1400 1399 1397 1395
1447 1445 1445 1446 1445 1445 1445 1444 1443 1441 1440 1439 1439 1439 1438 1436 1436 1435 1433 1432 1431 1429 1428 1428 1425 1424 1421 1420 1417 1413 1412 1411 1409 1406 1404 1399 1400 1398 1397 1396 1394 1392 1391
1439 1437 1436 1437 1437 1438 1438 1439 1438 1436 1434 1434 1433 1433 1433 1432 1431 1430 1428 1426 1425 1424 1423 1422 1420 1420 1418 1416 1414 1411 1409 1407 1405 1404 1403 1396 1395 1392 1392 1391 1391 1389 1388
1431 1429 1428 1428 1428 1429 1430 1430 1430 1430 1429 1427 1427 1427 1427 1427 1425 1425 1423 1421 1419 1418 1418 1418 1416 1415 1414 1413 1411 1409 1406 1403 1399 1398 1398 1394 1392 1388 1386 1385 1385 1385 1385
1423 1422 1420 1420 1421 1422 1421 1420 1423 1424 1422 1421 1421 1421 1421 1421 1420 1419 1417 1416 1414 1413 1412 1412 1410 1409 1408 1406 1406 1404 1402 1400 1399 1396 1394 1394 1391 1389 1382 1379 1381 1382 1380